Other Public Products
Issued by NWS Charleston, SC

Current Version | Previous Version | Graphics & Text | Print | Product List | Glossary On
Versions: 1 2 3 4 5 6 7 8 9 10 11 12 13 14 15 16 17 18 19 20 21 22 23 24 25 26 27 28 29 30 31 32 33 34 35 36 37 38 39 40 41 42 43 44 45 46 47 48 49 50
135 FPUS82 KCHS 251730 OPUCHS TEST...KCHS/KSAV Gateway Observations...TEST National Weather Service Charleston SC 100 PM EDT MON SEP 25 2017 NOTE: "fair" indicates few or no clouds below 12,000 feet with no significant weather and/or obstructions to visibility. SCZ050-WAZ558-NCZ071-TXZ119-213-PAZ071-DCZ001-FLZ074-172-MI076- NYZ176-178-MAZ016-IL014-TNZ027-NJZ106-GAZ044-MD014-251800- ...Gateway Observations for Charleston International... CITY SKY/WX TMP DP RH WIND PRES REMARKS Chas Airport PTSUNNY 81 69 67 E6 29.91F Seattle PTSUNNY 58 53 84 SE8 30.11S Charlotte CLOUDY 82 65 56 N13G18 30.02F Dallas DFW PTSUNNY 86 68 54 SE17G23 29.90F Dallas Love MOSUNNY 86 68 54 S17G24 29.91F Philladelphia MOSUNNY 88 67 49 E6 30.04F HX 91 Wash National PTSUNNY 88 67 49 NE7 30.04F HX 91 Baltimore PTSUNNY 86 67 52 E6 30.03F Miami PTSUNNY 90 72 55 CALM 29.89F HX 97 Detroit MOSUNNY 87 66 49 VRB3 30.06F Newark MOSUNNY 89 67 47 NE6 30.04F HX 92 Laguardia MOSUNNY 82 68 62 NE9 30.05F J F K MOSUNNY 83 63 50 S8 30.07S Boston Logan MOSUNNY 77 66 68 E8 30.08S Ft. Lauderdale MOSUNNY 93 73 52 NW5 29.88F HX 102 Chicago O`Hare MOSUNNY 88 61 40 SE8 29.99F Chicago Midway MOSUNNY 89 62 40 SE7 29.99F Houston Bush MOSUNNY 86 73 65 E12 29.89F HX 93 Houston Hobby MOSUNNY 89 72 56 E8 29.88F HX 96 Nashville MOSUNNY 86 65 49 CALM 30.05F Atlanta MOSUNNY 84 61 45 E12 30.04F $$ GAZ044-118-TXZ119-213-NCZ071-DCZ001-MDZ014-506-PAZ021-071-NJZ106- NYZ176-178-MAZ106-OHZ011-021-055-MIZ076-KYZ091-ILZ014-INZ047- MNZ060-ONZ431-251800- ...Gateway Observations for Savannah International... CITY SKY/WX TMP DP RH WIND PRES REMARKS Savannah Arpt MOSUNNY 86 68 54 NE7 29.92F Atlanta MOSUNNY 84 61 45 E12 30.04F Charlotte CLOUDY 82 65 56 N13G18 30.02F Dallas DFW PTSUNNY 86 68 54 SE17G23 29.90F Houston Bush MOSUNNY 86 73 65 E12 29.89F HX 93 Wash National PTSUNNY 88 67 49 NE7 30.04F HX 91 Wash Dulles PTSUNNY 87 69 54 VRB7 30.04F HX 91 Baltimore PTSUNNY 86 67 52 E6 30.03F Philadelphia MOSUNNY 88 67 49 E6 30.04F HX 91 Newark MOSUNNY 89 67 47 NE6 30.04F HX 92 Laguardia MOSUNNY 82 68 62 NE9 30.05F J F K MOSUNNY 83 63 50 S8 30.07S Boston MOSUNNY 77 66 68 E8 30.08S Pittsburg CLOUDY 83 65 54 S6 30.10F Akron PTSUNNY 86 62 44 S5 30.09F Cleveland MOSUNNY 91 62 37 SE9 30.07F HX 91 Cincinnati PTSUNNY 84 65 52 W3 30.06F Columbus MOSUNNY 84 64 51 CALM 30.05F Detroit MOSUNNY 87 66 49 VRB3 30.06F Chicago O`Hare MOSUNNY 88 61 40 SE8 29.99F Minneapolis CLOUDY 61 59 93 N8 29.99F Indianapolis MOSUNNY 86 60 41 CALM 30.04F Toronto Canada MOSUNNY 86 66 51 S8 30.08F $$

USA.gov is the U.S. government's official web portal to all federal, state and local government web resources and services.